Zurück zum Katalog

SL-14 DEB

AktivPO
NORAD 45332·DEBRIS·🇷🇺 Russia

Gestartet Aug 15, 1991 von Plesetsk Cosmodrome

Loading…

Nächste Überflüge (nächste 24 Stunden)

TLE

AktuellSource: Space-Track

Epoche: Sep 12, 2026, 23:35 UTC

1 45332U 91056BW  26255.98331276  .00000552  00000-0  14417-2 0  9998
2 45332  82.5485  89.4575 0106872 341.7595  17.9703 13.13235728312993

Verfolge SL-14 DEB in Echtzeit mit AllMySat

Download on the App Store